Content
SEND FEEDBACK

Daily
Averages
Monthly
Summary
United States of America

SANTA YNEZ, CALIFORNIA


Home > North America > United States > California
Elevation: 196 meters     Latitude: 3436 N     Longitude: 120 04W

WEATHER
 
SELECT A DAY
Number of Records: 56,796;   Date Range: 3/14/95 - 8/20/14
 
SHARE

PRINT THIS DATA

[ ← Previous Day ]
WEATHER ALMANAC - 31 JANUARY, 2013
[ Next Day → ]
[ °F ]   °C
Weather ElementAverageHighLow
Temperature10.9 °C23 °C (1:35 pm)2 °C (3:55 am)
Dewpoint3.4 °C7 °C (10:15 am)0 °C (7:35 am)
Humidity65.9 %93 % (2:55 am)23 % (1:55 pm)
Barometer1022.4 hPa1025.1 hPa (12:35 am)1020.3 hPa (3:15 pm)
Wind Speed3.9 km/h16.7 km/h (3:55 pm)
Weather ElementAverage
Visibility16.1 km
Wind DirectionE (86.8 °)

Weather ElementTotal
Precipitation---
Heating Degree Days5.8 (Base 18.3)
Growing Degree Days2.5 (Base 10)
Averaged from 71 records on 31 January, 2013
WEATHER CONDITIONS BREAKOUT
WIND DIRECTION BREAKOUT
WEATHER BY HOUR - 31 JANUARY, 2013
[ °F ]   °C
Local TimeTemperatureDewpointHumidityBarometerVisibilityWind DirectionWind SpeedGust SpeedPrecipitationEventsConditions
12:35 AM5 °C3 °C87 %1025.1 hPa16.1 kmCalmClear
12:55 AM5 °C3 °C87 %1024.7 hPa16.1 kmCalmClear
1:15 AM5 °C2 °C81 %1024.4 hPa16.1 kmCalmClear
1:35 AM5 °C2 °C81 %1024.7 hPa16.1 kmCalmClear
1:55 AM5 °C2 °C81 %1024.4 hPa16.1 kmCalmClear
2:15 AM4 °C2 °C87 %1024.4 hPa16.1 kmCalmClear
2:35 AM4 °C2 °C87 %1024 hPa16.1 kmCalmClear
2:55 AM3 °C2 °C93 %1023.7 hPa16.1 kmCalmClear
3:15 AM3 °C1 °C87 %1023.7 hPa16.1 kmNE (40°)7.4 km/hClear
3:35 AM3 °C1 °C87 %1023.7 hPa16.1 kmNE (40°)7.4 km/hClear
3:55 AM2 °C1 °C93 %1023.4 hPa16.1 kmCalmClear
4:15 AM4 °C2 °C87 %1023 hPa16.1 kmCalmClear
4:35 AM3 °C1 °C87 %1023 hPa16.1 kmCalmClear
4:55 AM3 °C1 °C87 %1023 hPa16.1 kmNE (40°)5.6 km/hClear
5:15 AM3 °C2 °C93 %1023 hPa16.1 kmCalmClear
5:35 AM4 °C2 °C87 %1023 hPa16.1 kmCalmClear
5:55 AM4 °C2 °C87 %1023 hPa16.1 kmCalmClear
6:15 AM2 °C1 °C93 %1022.7 hPa16.1 kmCalmClear
6:35 AM3 °C2 °C93 %1022.7 hPa16.1 kmNNE (30°)7.4 km/hClear
6:55 AM2 °C1 °C93 %1023 hPa16.1 kmCalmClear
7:15 AM4 °C2 °C87 %1023 hPa16.1 kmCalmClear
7:35 AM2 °C0 °C87 %1023.4 hPa16.1 kmCalmClear
7:55 AM3 °C2 °C93 %1023.4 hPa16.1 kmCalmClear
8:15 AM4 °C2 °C87 %1023.7 hPa16.1 kmCalmClear
8:35 AM6 °C3 °C81 %1023.7 hPa16.1 kmCalmClear
8:55 AM8 °C5 °C81 %1023.7 hPa16.1 kmCalmClear
9:15 AM10 °C6 °C76 %1024 hPa16.1 kmCalmClear
9:35 AM9 °C6 °C82 %1024 hPa16.1 kmCalmClear
9:55 AM11 °C6 °C71 %1023.7 hPa16.1 kmCalmClear
10:15 AM12 °C7 °C72 %1024 hPa16.1 kmCalmClear
10:35 AM13 °C7 °C67 %1023.7 hPa16.1 kmCalmClear
10:55 AM15 °C7 °C59 %1023.7 hPa16.1 kmCalmClear
11:15 AM16 °C7 °C55 %1023.4 hPa16.1 kmCalmClear
11:35 AM17 °C7 °C52 %1023 hPa16.1 kmCalmClear
11:55 AM18 °C6 °C45 %1022.7 hPa16.1 kmCalmClear
12:15 PM20 °C5 °C37 %1022.4 hPa16.1 kmCalmClear
12:35 PM21 °C5 °C35 %1022 hPa16.1 kmCalmClear
12:55 PM22 °C4 °C31 %1021.7 hPa16.1 kmWest (260°)5.6 km/hClear
1:15 PM22 °C3 °C29 %1021.3 hPa16.1 kmWest (280°)7.4 km/hClear
1:35 PM23 °C2 °C25 %1021 hPa16.1 kmWest (280°)11.1 km/hClear
1:55 PM23 °C1 °C23 %1021 hPa16.1 kmWest (280°)9.3 km/hClear
2:15 PM23 °C1 °C23 %1021 hPa16.1 kmWest (280°)7.4 km/hClear
2:35 PM23 °C2 °C25 %1020.7 hPa16.1 kmWNW (290°)7.4 km/hClear
2:55 PM23 °C2 °C25 %1020.7 hPa16.1 kmWest (280°)14.8 km/hClear
3:15 PM23 °C2 °C25 %1020.3 hPa16.1 kmWNW (290°)7.4 km/hClear
3:35 PM23 °C3 °C27 %1020.3 hPa16.1 kmWest (280°)14.8 km/hClear
3:55 PM22 °C5 °C33 %1020.7 hPa16.1 kmWNW (290°)16.7 km/hClear
4:15 PM21 °C5 °C35 %1020.3 hPa16.1 kmWNW (300°)13 km/hClear
4:35 PM21 °C5 °C35 %1020.3 hPa16.1 kmWNW (290°)14.8 km/hClear
4:55 PM20 °C4 °C35 %1020.7 hPa16.1 kmWNW (290°)11.1 km/hClear
5:15 PM17 °C4 °C42 %1020.7 hPa16.1 kmWest (280°)9.3 km/hClear
5:35 PM16 °C5 °C48 %1020.7 hPa16.1 kmSW (230°)9.3 km/hClear
5:55 PM15 °C4 °C48 %1021 hPa16.1 kmWSW (250°)9.3 km/hClear
6:15 PM15 °C3 °C45 %1021 hPa16.1 kmWSW (250°)7.4 km/hClear
6:35 PM13 °C5 °C58 %1021.3 hPa16.1 kmWSW (240°)9.3 km/hClear
6:55 PM13 °C5 °C58 %1021.3 hPa16.1 kmWest (260°)5.6 km/hClear
7:15 PM13 °C4 °C54 %1021.3 hPa16.1 kmCalmClear
7:35 PM12 °C4 °C58 %1021.7 hPa16.1 kmCalmClear
7:55 PM11 °C4 °C62 %1021.7 hPa16.1 kmCalmClear
8:15 PM11 °C5 °C67 %1021.7 hPa16.1 kmSouth (190°)5.6 km/hClear
8:35 PM11 °C5 °C67 %1021.7 hPa16.1 kmCalmClear
8:55 PM10 °C5 °C71 %1021.7 hPa16.1 kmESE (110°)5.6 km/hClear
9:15 PM10 °C5 °C71 %1021.7 hPa16.1 kmESE (110°)7.4 km/hClear
9:35 PM10 °C5 °C71 %1021.7 hPa16.1 kmEast (90°)5.6 km/hClear
9:55 PM8 °C5 °C81 %1021.7 hPa16.1 kmENE (70°)7.4 km/hClear
10:15 PM7 °C4 °C81 %1021.3 hPa16.1 kmENE (60°)5.6 km/hClear
10:35 PM7 °C4 °C81 %1021.3 hPa16.1 kmNE (50°)5.6 km/hClear
10:55 PM7 °C4 °C81 %1021.3 hPa16.1 kmNE (40°)5.6 km/hClear
11:15 PM7 °C3 °C76 %1021.3 hPa16.1 kmENE (60°)5.6 km/hClear
11:35 PM6 °C3 °C81 %1021.3 hPa16.1 kmNNE (30°)5.6 km/hClear
11:55 PM6 °C3 °C81 %1021.3 hPa16.1 kmCalmClear
Hourly data recorded from KIZA, located 0 kilometers away from Santa Ynez, California







STORIES FROM OUR PARTNERS